Location: Mana�l
(15.0115°N, 12.5022°W)
Time: 05:47:01
(UTC+00:00)

Cosmos 1727 Rocket - Pass Details

Date: 07 June 2020
Orbit: 960 x 997 km, 82.9° (Epoch: 05 July)

Event Time Altitude Azimuth Distance (km) Brightness Sun altitude
Rises 04:34:55 0° 353° (N) 3,635 7.3 -23.0°
Reaches altitude 10° 04:37:24 10° 352° (N) 2,689 6.6 -22.5°
Maximum altitude 04:43:32 77° 268° (W) 987 3.8 -21.3°
Enters shadow 04:48:59 14° 182° (S) 2,436 5.8 -20.2°
